Weather Roundup
Issued by NWS

Home | Current Version | Previous Version | Text Only | Print | Product List | Glossary On
Versions: 1 2 3 4 5 6 7 8 9 10 11 12 13 14 15 16 17 18 19 20 21 22 23 24 25 26 27 28 29 30 31 32 33 34 35 36 37 38 39 40 41 42 43 44 45 46 47 48 49 50
000
NZUS93 KARX 241559
HRRWXR

CURRENT HOURLY OBSERVATIONS ACROSS
MUCH OF THE UPPER MISSISSIPPI VALLEY
NATIONAL WEATHER SERVICE LA CROSSE WI
1100 AM CDT THU APR 24 2014


...SOUTHEAST MINNESOTA...


CITY           SKY/WX    TMP DP  RH WIND       PRES   REMARKS
ROCHESTER      CLOUDY    41  37  86 SE21G28   29.70F
ROCHESTER/MAYO CLOUDY    40  38  94 E17G24    29.71F WCI  31
WINONA         LGT RAIN  41  39  93 SE12G17   29.77F
AUSTIN         CLOUDY    43  39  87 SE18G26   29.68S
ALBERT LEA     DRIZZLE   41  41 100 SE14G21   29.68R
DODGE CENTER   CLOUDY    43  41  93 SE22      29.69F
PRESTON        CLOUDY    41  38  90 SE13G21   29.73F
OWATONNA       LGT RAIN  43  39  87 SE13      29.70R
FARIBAULT      LGT RAIN  45  37  76 E10G16    29.72S
$$

...ELSEWHERE IN MINNESOTA...


CITY           SKY/WX    TMP DP  RH WIND       PRES   REMARKS
MINNEAPOLIS    LGT RAIN  40  40 100 E10       29.75F FOG     WCI  33
INTNL FALLS    LGT RAIN  39  36  89 SE13      29.87S FOG     WCI  31
DULUTH         LGT SNOW  34  32  92 E14       29.87F VSB 3/4 WCI  25
RED WING       LGT RAIN  43  39  87 SE13G20   29.74F
REDWOOD FALLS  LGT RAIN  44  42  93 SE5       29.71F FOG
MANKATO        CLOUDY    43  39  87 E8        29.70F
WORTHINGTON    CLOUDY    45  39  81 NW10      29.70F
FAIRMONT       CLOUDY    43  37  81 CALM      29.70R
$$

...SOUTHWEST WISCONSIN...


CITY           SKY/WX    TMP DP  RH WIND       PRES   REMARKS
LA CROSSE      LGT RAIN  43  40  89 SE12      29.80F
PRAIRIE DU CHI CLOUDY    46  38  75 E12       29.76F
BOSCOBEL       LGT RAIN  46  40  79 NE5       29.80F
LONE ROCK      NOT AVBL
PLATTEVILLE    CLOUDY    50  39  67 SE20G28   29.78F
FORT MC COY    RAIN      40  39  95 E15       29.83F WCI  32
VIROQUA        CLOUDY    40  40  99 E23G29    29.77F WCI  30
WIS DELLS      LGT RAIN  40  36  86 E14       29.86F WCI  32
$$

...ELSEWHERE IN WISCONSIN...


CITY           SKY/WX    TMP DP  RH WIND       PRES   REMARKS
MILWAUKEE      CLOUDY    47  35  63 SE20G26   29.98S
MADISON        CLOUDY    46  37  71 E17G26    29.87F
GREEN BAY      LGT RAIN  41  38  89 E8        30.02F FOG
EAU CLAIRE     NOT AVBL
BLACK RVR FLS  RAIN      41  41  99 SE10G18   29.84F
MEDFORD        RAIN      36  34  94 E13G20    29.89F WCI  27
WAUSAU         MIX PCPN  37  34  89 E17       29.91F FOG     WCI  27
WIS RAPIDS     LGT RAIN  40  38  93 SE13G21   29.91F WCI  32
MARSHFIELD     LGT RAIN  39  36  89 SE16G24   29.87F FOG     WCI  30
RICE LAKE      RAIN      39  37  93 E13       29.84F WCI  32
$$

...NORTHEAST IOWA...


CITY           SKY/WX    TMP DP  RH WIND       PRES   REMARKS
WATERLOO       LGT RAIN  45  43  93 SE13      29.69F FOG
DUBUQUE        CLOUDY    55  39  54 S25G35    29.75F
DECORAH        LGT RAIN  41  41 100 SE7G21    29.75R
MASON CITY     LGT RAIN  44  42  93 SE13      29.68S
CHARLES CITY   CLOUDY    43  41  93 SE16G25   29.69F
OELWEIN        MIX PCPN N/A N/A N/A SE14      29.74R VSB 1
$$

...ELSEWHERE IN IOWA...


CITY           SKY/WX    TMP DP  RH WIND       PRES   REMARKS
DES MOINES     CLOUDY    55  52  89 SW3       29.67R
IOWA CITY      CLOUDY    57  40  52 SE14      29.74S
FORT DODGE     CLOUDY    48  45  87 SW3       29.66R
MARSHALLTOWN   LGT RAIN  47  44  90 S16G28    29.67F
CEDAR RAPIDS   CLOUDY    55  39  54 S15G25    29.71S
$$

...NORTHERN ILLINOIS...


CITY           SKY/WX    TMP DP  RH WIND       PRES   REMARKS
CHICAGO-OHARE  CLOUDY    56  35  45 SE18G24   29.94S
DUPAGE         CLOUDY    59  38  45 SE15G25   29.91F
CHICAGO-MIDWAY CLOUDY    57  37  47 SE16G25   29.95F
MOLINE         PTSUNNY   61  38  42 S22G35    29.75F
ROCKFORD       CLOUDY    56  39  53 SE21G32   29.88F
STERLING       CLOUDY    59  39  47 SE18G28   29.81F
PEORIA         MOSUNNY   62  37  39 S14G24    29.85F
$$

NOTE: "FAIR" INDICATES FEW OR NO CLOUDS BELOW 12,000 FEET WITH NO
SIGNIFICANT WEATHER AND/OR OBSTRUCTIONS TO VISIBILITY. WIND
SPEEDS ARE IN MILES-PER-HOUR.



USA.gov is the U.S. government's official web portal to all federal, state and local government web resources and services.